Friday, February 27, 2015
22:40 UTC
  |  Log In   |  Register Free
Airport Search:

Skyway Estates Airport
(60G)

Skyway Estates Airport Diagram
No Airport Diagram Available

FAA data valid effective January 08, 2015 - March 05, 2015 (unless otherwise noted).

 
 
 
 
 
 
 
 
 
 
 
 
 
 

Current Aviation Weather for Skyway Estates Airport (60G)

METAR data is unavailable for 60G. The nearest METAR location is at KFPK (7.1 nm SW from 60G).

The most recent METAR observation for KFPK was updated at: 2210
METAR Summary (Translated METAR)
KFPK
272155Z AUTO 23009KT 10SM OVC042 M08/M17 A3052 RMK AO2 T10801166
(7.1 nm SW from 60G)
K11J
201400Z AUTO 03007KT 010V070 10SM CLR 16/11 A3018 RMK AO2 T01620107
(10.1 nm SE from 60G)
TAF
No TAF information found within 50 nm of KFPK
  Airport Weather Conditions for 60G

Current weather conditions are
not available for 60G


The nearest NOAA weather station
is at FPK, (7.1 nm SW from 60G)
  
 Current Weather at FPK
18° F
Overcast
Southwest winds at 10.4 mph
FPK NOAA Radar

Pressure: 30.52 in
Humidity: 50%
Wind: Southwest at 10.4 MPH (9 KT)
Dew Point: 2.1°F
Visibility: 10.00 mi


Airport Weather Forecast for 60G

Translated METAR and TAF for KFPK
Translated METAR for KFPK (2240 UTC 27 February 2015)
found at http://aviationweather.gov/adds/metars/
 
METAR text: KFPK 272235Z AUTO 24010KT 10SM BKN040 M08/M16 A3052 RMK AO2 T10841165
Conditions at: KFPK (CHARLOTTE , MI, US) observed 2235 UTC 27 February 2015
Temperature: -8.4°C (17°F)
Dewpoint: -16.5°C (2°F) [RH = 52%]
Pressure (altimeter): 30.52 inches Hg (1033.6 mb)
Winds: from the WSW (240 degrees) at 12 MPH (10 knots; 5.2 m/s)
Visibility: 10 or more miles (16+ km)
Ceiling: 4000 feet AGL
Clouds: broken clouds at 4000 feet AGL
Weather: automated observation with no human augmentation;
there may or may not be significant weather present at this time
Translated TAF for KFPK

There is no translated TAF available for this airport

Find All Airport Services Find A Hotel Find A Rental Car Find A Golf Course Find A Restaurant $100 Hamburger



FBO's on the Field
FBO Company Facility Photos Services Transportation Aviation Fuel Prices: Prices include tax
Catering Weather Repair Courtesy Rental Type 100LL JetA JetA+ MOGAS 8087
 
Add another FBO Facility Photos Catering Weather Repair Courtesy Rental Type 100LL JetA JetA+ MOGAS 8087
Services Transportation Aviation Fuel Prices: Prices include tax
There are no FBO's currently reporting fuel at 60G. List your FBO now


model-print
model-print
model-print
model-print